Overview Statistics Trail Chart Weather Telemetry Raw packets
 

This is the latest recevied weather packets stored in our database for station/object Waldburg. If no packets are shown the sender has not sent any weather packets the latest 10 day(s).

<< 5 6 7 8 9 10 11 >>
Time Temp. Humidity Pressure Rain* Wind** Luminosity Snow
1788408130 15° C 83% 1020.5 hPa 0 mm - - -
1788406331 15° C 83% 1020.3 hPa 0 mm - - -
1788404529 15° C 84% 1020.6 hPa 0 mm - - -
1788402730 15° C 83% 1020.4 hPa 0 mm - - -
1788400929 15° C 79% 1020.6 hPa 0 mm - - -
1788399130 16.11° C 78% 1020.5 hPa 0 mm - - -
1788397329 16.67° C 77% 1020.5 hPa 0 mm - - -
1788395531 16.67° C 76% 1020.4 hPa 0 mm - - -
1788393732 17.22° C 73% 1020.2 hPa 0 mm - - -
1788391932 17.78° C 70% 1020.2 hPa 0 mm - - -
1788390131 18.33° C 68% 1020.3 hPa 0 mm - - -
1788388331 18.33° C 61% 1020.4 hPa 0 mm - - -
1788384731 18.33° C 63% 1020.1 hPa 0 mm - - -
1788382931 18.89° C 63% 1019.9 hPa 0 mm - - -
1788381131 19.44° C 64% 1019.7 hPa 0 mm - - -
1788379331 19.44° C 63% 1019.7 hPa 0 mm - - -
1788377531 19.44° C 62% 1019.6 hPa 0 mm - - -
1788375756 19.44° C 61% 1019.4 hPa 0 mm - - -
1788373931 19.44° C 60% 1019.1 hPa 0 mm - - -
1788372131 20.56° C 59% 1019.2 hPa 0 mm - - -
1788370330 21.11° C 57% 1018.8 hPa 0 mm - - -
1788368531 21.67° C 55% 1018.8 hPa 0 mm - - -
1788366732 22.22° C 52% 1018.7 hPa 0 mm - - -
1788364931 22.78° C 51% 1018.6 hPa 0 mm - - -
1788363130 23.33° C 54% 1018.6 hPa 0 mm - - -

* Rain since midnight (hover to see other rain measurements)
** Current wind speed in m/s (hover to see current wind gust speed)